STARLINK-35955 (66635 NORAD) Tracking and Keplerian Element Data

This shows tracking and keplerian element data for the satellite.

Feedback or suggestion? Click here.




ElementValue
Catalog66635
NameSTARLINK-35955
Epoch Orbit545
Epoch Day354.25003472
Epoch Year2025
RAAN151.4814
Inclination53.1597
Eccentricity0.0001065
Argument of Perigee97.3247
Mean Anonmoly62.1321
Mean Motion15.39591842
Decay Rate0.00049681
L11 66635U 25271U 25354.25003472 .00049681 00000+0 12451-2 0 9997
L22 66635 53.1597 151.4814 0001065 97.3247 62.1321 15.39591842 5452



Live tracking and technical data element details for STARLINK-35955 (NORAD 66635). STARLINK-35955 can be tracked NOW for your location showing map with azimuth and elevation plus other details from your city location.







IsCatalogInMostPopularTable: catalog: 66635, numindb: 22
Update: records affected: 1



GetName: 66635 STARLINK-35955

Hit Count: updated at: Tue, 21 Apr 2026 20:34:04 GMT